TimeEST,TemperatureF,Dew PointF,Humidity,Sea Level PressureIn,VisibilityMPH,Wind Direction,Wind SpeedMPH,Gust SpeedMPH,PrecipitationIn,Events,Conditions,WindDirDegrees,DateUTC
12:56 AM,15.1,9.1,77,30.38,10.0,West,10.4,-,0.00,,Mostly Cloudy,260,2014-02-07 05:56:00
1:56 AM,11.1,5.0,76,30.40,10.0,West,11.5,-,0.00,,Partly Cloudy,260,2014-02-07 06:56:00
2:56 AM,8.1,2.1,77,30.42,10.0,Calm,Calm,-,N/A,,Clear,0,2014-02-07 07:56:00
3:56 AM,5.0,-2.9,70,30.43,10.0,WSW,6.9,-,N/A,,Clear,250,2014-02-07 08:56:00
4:56 AM,2.1,-6.0,69,30.45,10.0,WSW,6.9,-,N/A,,Clear,240,2014-02-07 09:56:00
5:56 AM,0.1,-6.9,72,30.46,10.0,SW,6.9,-,N/A,,Clear,230,2014-02-07 10:56:00
6:56 AM,-0.9,-6.9,76,30.47,10.0,Calm,Calm,-,N/A,,Clear,0,2014-02-07 11:56:00
7:56 AM,-1.8,-6.9,79,30.47,10.0,Calm,Calm,-,N/A,,Clear,0,2014-02-07 12:56:00
8:56 AM,3.0,-4.9,70,30.48,10.0,SW,6.9,-,N/A,,Clear,220,2014-02-07 13:56:00
9:56 AM,6.1,-4.9,61,30.48,10.0,SW,6.9,-,N/A,,Clear,220,2014-02-07 14:56:00
10:56 AM,9.1,-4.0,55,30.47,10.0,SSW,4.6,-,N/A,,Clear,210,2014-02-07 15:56:00
11:56 AM,11.1,-4.0,51,30.46,10.0,SW,12.7,18.4,N/A,,Clear,220,2014-02-07 16:56:00
12:56 PM,14.0,-1.8,49,30.44,10.0,SSW,9.2,16.1,N/A,,Clear,210,2014-02-07 17:56:00
1:56 PM,15.1,-0.9,49,30.44,10.0,SW,10.4,-,N/A,,Mostly Cloudy,220,2014-02-07 18:56:00
2:56 PM,15.1,-0.9,49,30.44,10.0,SW,10.4,-,N/A,,Partly Cloudy,230,2014-02-07 19:56:00
3:56 PM,14.0,-2.9,47,30.45,10.0,WSW,11.5,-,N/A,,Clear,240,2014-02-07 20:56:00
4:56 PM,14.0,-4.0,45,30.46,10.0,SW,8.1,-,N/A,,Clear,230,2014-02-07 21:56:00
5:56 PM,12.0,-4.0,49,30.47,10.0,SW,4.6,-,N/A,,Clear,220,2014-02-07 22:56:00
6:56 PM,10.0,-4.0,53,30.48,10.0,SW,4.6,-,N/A,,Clear,220,2014-02-07 23:56:00
7:56 PM,9.1,-4.0,55,30.47,10.0,Calm,Calm,-,N/A,,Clear,0,2014-02-08 00:56:00
8:56 PM,8.1,-4.9,56,30.47,10.0,SSW,4.6,-,N/A,,Clear,210,2014-02-08 01:56:00
9:56 PM,7.2,-6.0,55,30.46,10.0,SSW,5.8,-,N/A,,Clear,210,2014-02-08 02:56:00
10:56 PM,7.2,-6.0,55,30.45,10.0,Calm,Calm,-,N/A,,Clear,0,2014-02-08 03:56:00
11:56 PM,5.0,-6.0,61,30.44,10.0,Calm,Calm,-,N/A,,Clear,0,2014-02-08 04:56:00